Volver al catálogo

RASSVET-1 NO. 3

ActivoComunicacionesSSO
NORAD 57170·PAYLOAD·🇷🇺 Russia
Este nombre de satélite aún no ha sido confirmado por fuentes oficiales.

Lanzado Jun 27, 2023 desde Vostochny Cosmodrome

Loading…

Próximos Pases (próximas 24 horas)

TLE

ActualizadoSource: Space-Track

Época: Sep 14, 2026, 15:09 UTC

1 57170U 23091E   26257.63137008  .00006499  00000-0  25992-3 0  9993
2 57170  97.5020 319.4749 0010073 133.0157 227.1926 15.25398167177790

Sigue RASSVET-1 NO. 3 en tiempo real con AllMySat

Download on the App Store